Regional Weather Roundup
Issued by NWS

Home | Current Version | Previous Version | Text Only | Print | Product List | Glossary Off
Versions: 1 2 3 4 5 6 7 8 9 10 11 12 13 14 15 16 17 18 19 20 21 22 23 24 25 26 27 28 29 30 31 32 33 34 35 36 37 38 39 40 41 42 43 44 45 46 47 48 49 50

000
ASUS43 KLOT 061410
RWRIL

ILLINOIS REGIONAL WEATHER ROUNDUP
NATIONAL WEATHER SERVICE CHICAGO/ROMEOVILLE IL
800 AM CST FRI MAR 06 2015

NOTE: "FAIR" INDICATES FEW OR NO CLOUDS BELOW 12,000 FEET WITH NO
SIGNIFICANT WEATHER AND/OR OBSTRUCTIONS TO VISIBILITY.

* THESE STATIONS ARE NOT UNDER NWS QUALITY CONTROL. THEY ALSO MAY NOT
  REPORT WEATHER SUCH AS PRECIPITATION OR FOG.

ILZ001-002-007-009-015-016-024-061500-
NORTHWEST ILLINOIS

CITY           SKY/WX    TMP DP  RH WIND       PRES   REMARKS
MOLINE         MOSUNNY   12   2  64 S10       30.33F WCI  -1
STERLING*      SUNNY     10   1  67 S6        30.36F WCI   1
SAVANNA*       MOSUNNY    8   0  69 S15       30.34F WCI  -9
$$

ILZ003-004-008-010-011-017-018-061500-
NORTH CENTRAL ILLINOIS

CITY           SKY/WX    TMP DP  RH WIND       PRES   REMARKS
ROCKFORD       PTSUNNY    4  -3  73 S12       30.39F WCI -12
FREEPORT*      PTSUNNY    5  -2  72 S16       30.35F WCI -14
ROCHELLE*      MOSUNNY    4  -2  77 S14       30.39F WCI -13
DE KALB*       MOSUNNY    1  -5  78 S15       30.39F WCI -19
PERU*          PTSUNNY    9   2  72 S12       30.43F WCI  -6
$$

ILZ005-006-012>014-019>023-061500-
NORTHEAST ILLINOIS

CITY           SKY/WX    TMP DP  RH WIND       PRES   REMARKS
CHICAGO-OHARE  PTSUNNY    9   0  67 SW14G21   30.41F WCI  -7
CHICAGO-MIDWAY MOSUNNY   10   1  67 SW13      30.44F WCI  -5
AURORA         MOSUNNY    4  -2  76 S7        30.43S WCI  -8
LANSING*       SUNNY      4  -3  74 S13       30.47S WCI -13
JOLIET*        SUNNY      8   1  75 S9        30.46S WCI  -6
WAUKEGAN       SUNNY      7  -1  70 S14       30.38F WCI -10
DUPAGE AIRPORT SUNNY      6  -1  73 S10       30.41S WCI  -9
KANKAKEE*      SUNNY      6  -1  76 S10       30.49S WCI  -9
WHEELING       SUNNY      9  -1  64 S9        30.43F WCI  -4
MORRIS*        MOSUNNY    4   1  84 S8        30.46R WCI  -9
ROMEOVILLE*    SUNNY      8   1  74 SW14      30.45R WCI  -9
NORTHERLY ISL    N/A     10   0  63 S10         N/A  WCI  -4
$$

LMZ740>746-061500-
SOUTHERN LAKE MICHIGAN

STATION/POSITION SKY/WX   TEMP    WIND        PRES    VSBY  WAVE
                          AIR SEA DIR/SP/G                  HT/PER
                          (F)     (DEG/KT/KT) (MB)    (MI)  (FT/S)
WAUKEGAN HARBOR            10                   N/A
HARRISON CRIB              10     210/ 21/ 25   N/A
BURNHAM HARBOR             11     210/  9/ 14   N/A
CALUMET HARBOR              9     180/  8/ 12 1029.7F
MICHIGAN CITY               6     170/ 11/ 16   N/A
$$

ILZ025>027-034>036-040-047-049-050-058-095>099-061500-
WEST-CENTRAL ILLINOIS

CITY           SKY/WX    TMP DP  RH WIND       PRES   REMARKS
QUINCY         PTSUNNY   18   7  62 S13       30.37F WCI   5
GALESBURG*     SUNNY     10   4  77 S10       30.36F WCI  -4
MACOMB*        SUNNY     12   7  79 S16       30.40F WCI  -4
JACKSONVILLE*  SUNNY     16   6  66 S10G17    30.45F WCI   3
PITTSFIELD*    MOSUNNY   16  10  75 S9        30.43F WCI   5
$$

ILZ028>032-037-038-041>044-048-051>054-059>061-061500-
CENTRAL ILLINOIS

CITY           SKY/WX    TMP DP  RH WIND       PRES   REMARKS
PONTIAC        MOSUNNY    8   2  76 S14       30.48S WCI  -9
BLOOMINGTON    SUNNY      7   1  76 S15       30.46S WCI -10
DECATUR        SUNNY      9   1  70 S12       30.51S WCI  -6
PEORIA         SUNNY     11   2  67 S12       30.44F WCI  -3
LACON*         SUNNY     11   1  63 S8        30.43F WCI  -1
LINCOLN*       SUNNY      9   2  74 S12       30.52S WCI  -5
SPRINGFIELD    SUNNY     14   4  64 S14       30.48F WCI  -1
TAYLORVILLE    SUNNY     10   3  72 S15       30.51S WCI  -6
$$

ILZ033-039-045-046-055>057-062-063-061500-
EAST-CENTRAL ILLINOIS

CITY           SKY/WX    TMP DP  RH WIND       PRES   REMARKS
CHAMPAIGN      MOSUNNY    2  -3  80 S9        30.51S WCI -13
DANVILLE*      SUNNY      2  -1  85 CALM      30.50R
RANTOUL*       MOSUNNY   -1  -6  81 S5        30.51S WCI -12
MATTOON        PTSUNNY    7   1  76 S10       30.53R WCI  -8
PARIS*         MOSUNNY    7   4  87 S6        30.55R WCI  -3
$$

ILZ079-100>102-061500-
SOUTHWEST ILLINOIS

CITY           SKY/WX    TMP DP  RH WIND       PRES   REMARKS
ALTON          SUNNY     16   7  67 S9        30.52S WCI   4
BELLEVILLE     SUNNY     16  11  78 VRB3      30.54S
CAHOKIA*       SUNNY     18   8  65 S7        30.54F WCI   9
SPARTA*        SUNNY     14   5  67 S9        30.57S WCI   2
$$

ILZ064>066-069>071-074>076-080>082-084>086-088>090-092>094-061500-
SOUTH-CENTRAL ILLINOIS

CITY           SKY/WX    TMP DP  RH WIND       PRES   REMARKS
CARBONDALE     MOSUNNY    5   3  91 CALM      30.60S
CAIRO*         FOG        9   5  84 CALM      30.63R VSB<1/4
EFFINGHAM*     MOSUNNY    9   1  71 S6        30.58R WCI  -1
MARION         SUNNY      9   5  85 S5        30.61R WCI   0
MT. VERNON     SUNNY      7   1  78 CALM      30.58S
CENTRALIA*     SUNNY     14   6  69 S9        30.57S WCI   2
SALEM*         SUNNY     13   5  70 S7        30.57S WCI   3
METROPOLIS*    MOSUNNY    7   5  91 CALM      30.61R
$$

ILZ067-068-072-073-078-083-087-091-061500-
SOUTHEAST ILLINOIS

CITY           SKY/WX    TMP DP  RH WIND       PRES   REMARKS
LAWRENCEVILLE  MOSUNNY    6   4  91 CALM      30.59S
FLORA*         MOSUNNY    9   4  81 S6        30.59R WCI  -1
FAIRFIELD*     MOSUNNY    7   4  86 SW5       30.60R WCI  -2
HARRISBURG*    SUNNY      3   0  86 CALM      30.62R
ROBINSON*      MOSUNNY    2  -1  85 CALM      30.59R
CARMI*         MOSUNNY    8   6  92 CALM      30.59S
$$

ABBREVIATIONS USED IN REMARKS
   TC - TEMPERATURE IN CELSIUS
  WCI - WIND CHILL INDEX
   HX - HEAT INDEX
  VSB - VISIBILITY
$$




USA.gov is the U.S. government's official web portal to all federal, state and local government web resources and services.